Location: Elefantenklo
(50.5820°N, 8.6700°E)
Time: 12:21:52
(UTC+01:00)

ISS - Visible Passes

Search period start: 25 November 2017 00:00
Search period end: 05 December 2017 00:00
Orbit: 401 x 407 km, 51.6° (Epoch: 25 November)

Date Brightness Start Highest point End Pass type
(mag) Time Alt. Az. Time Alt. Az. Time Alt. Az.
27 Nov -0.8 19:07:42 10° SSW 19:07:46 10° SSW 19:07:46 10° SSW visible
28 Nov -1.6 18:16:14 10° S 18:17:44 15° SSE 18:17:44 15° SSE visible
29 Nov -1.8 18:58:44 10° SW 19:00:16 23° SSW 19:00:16 23° SSW visible
30 Nov -2.5 18:06:44 10° SSW 18:09:33 27° SSE 18:10:04 25° SE visible
30 Nov -0.4 19:42:28 10° WSW 19:42:43 12° WSW 19:42:43 12° WSW visible
01 Dec -1.8 17:15:03 10° S 17:17:18 17° SE 17:19:34 10° E visible
01 Dec -2.8 18:50:05 10° WSW 18:52:28 43° SW 18:52:28 43° SW visible
02 Dec -3.3 17:57:48 10° SW 18:00:58 46° SSE 18:02:09 30° E visible
02 Dec -0.7 19:34:05 10° W 19:34:47 15° W 19:34:47 15° W visible
03 Dec -2.5 17:05:41 10° SSW 17:08:37 30° SSE 17:11:34 10° E visible
03 Dec -3.4 18:41:36 10° WSW 18:44:26 63° W 18:44:26 63° W visible
04 Dec -3.8 17:49:09 10° WSW 17:52:25 74° SSE 17:54:02 27° E visible
04 Dec -1.0 19:25:40 10° W 19:26:40 18° W 19:26:40 18° W visible
